TimeEDT,TemperatureF,Dew PointF,Humidity,Sea Level PressureIn,VisibilityMPH,Wind Direction,Wind SpeedMPH,Gust SpeedMPH,PrecipitationIn,Events,Conditions,WindDirDegrees,DateUTC
12:55 AM,55.0,46.8,74,30.35,10.0,NNE,8.1,-,N/A,,Clear,30,2012-10-13 04:55:00
1:55 AM,53.2,44.2,72,30.36,10.0,NNE,8.1,-,N/A,,Clear,30,2012-10-13 05:55:00
2:55 AM,51.3,43.2,74,30.36,10.0,NE,5.8,-,N/A,,Clear,40,2012-10-13 06:55:00
3:55 AM,49.8,42.8,77,30.35,10.0,NNE,6.9,-,N/A,,Clear,30,2012-10-13 07:55:00
4:55 AM,48.6,41.7,77,30.36,10.0,NE,6.9,-,N/A,,Clear,40,2012-10-13 08:55:00
5:55 AM,47.1,41.0,79,30.37,10.0,NE,5.8,-,N/A,,Clear,40,2012-10-13 09:55:00
6:55 AM,47.3,40.1,76,30.40,10.0,NE,6.9,-,N/A,,Clear,40,2012-10-13 10:55:00
7:55 AM,47.7,39.6,73,30.42,10.0,NNE,6.9,-,N/A,,Clear,30,2012-10-13 11:55:00
8:55 AM,50.9,40.8,68,30.44,10.0,NE,10.4,-,N/A,,Clear,40,2012-10-13 12:55:00
9:55 AM,55.0,43.2,64,30.45,10.0,NE,10.4,-,N/A,,Clear,50,2012-10-13 13:55:00
10:55 AM,60.1,44.8,57,30.45,10.0,NNE,10.4,-,N/A,,Clear,30,2012-10-13 14:55:00
11:55 AM,63.0,45.1,52,30.44,10.0,East,8.1,-,N/A,,Clear,90,2012-10-13 15:55:00
12:55 PM,64.8,44.8,48,30.43,10.0,NE,8.1,-,N/A,,Clear,50,2012-10-13 16:55:00
1:55 PM,66.7,45.7,47,30.40,10.0,ENE,5.8,-,N/A,,Clear,60,2012-10-13 17:55:00
2:55 PM,67.5,46.4,47,30.37,10.0,NE,4.6,-,N/A,,Clear,40,2012-10-13 18:55:00
3:55 PM,68.5,47.1,46,30.35,10.0,ENE,9.2,-,N/A,,Clear,60,2012-10-13 19:55:00
4:55 PM,68.0,47.8,48,30.35,10.0,Calm,Calm,-,N/A,,Clear,0,2012-10-13 20:55:00
6:55 PM,61.3,50.2,67,30.35,10.0,Calm,Calm,-,N/A,,Clear,0,2012-10-13 22:55:00
7:55 PM,56.3,51.3,83,30.35,10.0,Calm,Calm,-,N/A,,Clear,0,2012-10-13 23:55:00
8:55 PM,54.0,50.4,88,30.35,10.0,East,3.5,-,N/A,,Clear,90,2012-10-14 00:55:00
9:55 PM,52.7,50.2,91,30.36,10.0,Calm,Calm,-,N/A,,Clear,0,2012-10-14 01:55:00
10:55 PM,51.3,47.8,88,30.35,10.0,East,5.8,-,N/A,,Clear,90,2012-10-14 02:55:00
11:55 PM,50.2,46.6,87,30.34,10.0,East,5.8,-,N/A,,Clear,90,2012-10-14 03:55:00